Theta_e
326 339 348 352 354 352 351 353 352 352 353 350 349 349 349 348 348 349 350 350 349 346 345 344 344 343 341 341 340 341 342 344 344 343 343 341 340 338 338 339 340 341 344
325 333 342 349 353 353 352 352 352 352 351 350 349 349 348 348 348 347 349 349 349 345 344 343 342 341 341 341 343 344 344 343 342 341 340 340 340 338 338 341 343 341 344
315 324 342 347 350 351 351 351 350 350 351 350 349 349 348 348 348 347 347 347 348 345 343 342 341 341 343 344 343 343 340 341 339 338 336 326 328 338 336 341 343 343 344
311 318 326 335 348 349 350 350 350 350 350 351 350 350 349 349 348 347 346 346 347 346 343 342 341 343 343 343 344 343 340 339 337 336 328 327 328 336 335 340 341 342 343
308 311 321 330 342 348 348 348 349 350 350 350 350 350 349 349 349 349 348 346 346 346 345 344 344 344 343 342 342 341 340 337 334 331 324 324 325 333 334 336 338 339 341
307 311 317 322 329 339 347 348 349 349 349 350 350 350 348 349 349 348 347 347 346 346 345 345 345 343 343 343 341 338 338 336 333 323 326 329 325 333 334 339 339 340 340
304 310 313 321 319 325 334 346 346 348 349 349 350 349 348 347 347 347 347 346 346 345 345 344 343 344 342 341 339 337 335 333 323 321 323 324 325 336 334 337 337 338 339
303 308 313 317 320 320 320 331 344 345 347 348 347 346 347 347 347 347 346 345 346 345 346 344 342 342 340 339 339 336 332 329 325 321 323 324 331 335 335 337 335 335 337
304 306 308 312 315 318 321 319 325 340 342 344 345 344 342 343 344 344 344 344 345 345 345 342 341 341 339 339 338 333 329 328 321 321 324 323 334 336 336 333 334 334 336
306 305 306 307 310 313 318 320 323 328 336 339 339 338 336 335 338 338 337 340 343 343 343 342 340 340 339 338 334 330 327 326 320 319 321 323 335 335 334 332 332 334 335
305 305 305 307 307 309 315 318 325 328 330 333 334 332 330 337 338 336 335 337 341 341 340 340 339 338 335 332 330 327 325 321 319 318 320 330 335 333 335 333 332 334 334
300 302 304 305 307 307 310 319 323 328 334 337 337 337 336 337 337 337 332 330 336 335 337 339 337 334 330 326 324 325 322 320 318 318 318 330 335 332 332 334 334 334 333
300 302 304 305 306 307 307 315 323 324 327 335 337 337 336 337 336 334 335 333 335 327 335 335 333 330 327 325 321 320 319 319 318 319 322 329 333 331 332 336 336 334 334
299 301 303 304 305 306 308 308 318 322 322 323 328 337 335 334 335 335 335 334 334 333 331 331 329 326 325 326 324 320 319 318 318 319 321 324 330 330 333 335 336 336 336
296 298 299 301 303 305 307 306 308 316 323 323 323 327 336 334 334 335 334 334 333 332 330 328 327 325 324 323 323 322 319 317 318 319 319 319 326 330 331 333 335 336 336
295 296 298 299 300 304 304 306 306 309 313 321 319 321 323 334 335 334 333 333 333 332 330 328 326 324 323 323 321 321 318 317 317 318 318 318 323 327 330 331 334 334 335
294 295 296 297 299 300 302 304 305 306 312 317 318 319 321 322 332 334 333 332 332 332 329 327 326 325 322 321 320 318 318 316 316 316 316 318 319 321 326 331 331 332 334
293 293 295 298 298 299 300 302 304 305 307 310 316 319 320 321 324 327 329 332 332 330 330 327 326 323 322 320 318 316 314 314 314 315 316 316 318 319 321 327 330 331 332
292 293 293 295 296 298 300 301 302 304 306 309 312 314 319 321 326 328 327 328 333 330 329 327 325 322 319 317 316 313 311 311 311 315 314 315 316 317 318 320 322 324 330
291 292 293 294 296 298 299 300 302 303 305 305 311 313 317 319 324 328 329 329 329 329 328 326 324 323 320 318 317 314 311 310 310 310 310 313 314 316 317 318 318 318 321
291 291 292 293 295 297 297 298 299 300 302 305 310 313 315 321 322 324 324 324 327 327 327 327 325 322 319 320 316 315 312 311 310 310 310 310 311 314 315 317 317 318 318
289 290 291 292 293 294 295 298 300 300 303 304 307 311 313 314 317 318 322 325 323 322 325 325 325 322 321 320 316 313 308 309 310 310 310 312 311 313 314 316 317 318 319
287 288 290 293 293 295 297 298 300 301 302 303 307 309 311 314 315 316 323 324 326 325 323 323 323 323 319 321 319 312 307 307 308 311 311 311 312 313 314 315 316 318 318
287 289 290 291 293 295 297 298 298 298 298 301 304 308 309 315 315 315 319 323 325 325 325 324 326 324 322 317 316 316 313 312 308 305 310 311 311 310 311 311 315 316 316
287 288 289 291 292 294 297 299 300 298 299 303 303 306 309 312 314 314 317 320 318 322 325 325 324 324 321 319 316 314 314 314 312 307 305 307 309 309 308 310 311 312 314
286 287 289 290 290 293 296 300 299 298 299 301 303 304 307 309 311 312 316 319 319 317 321 322 324 322 320 319 318 317 315 314 312 309 307 308 307 310 310 310 312 312 313
Wind_Speed
12 11 5 8 11 11 8 6 8 10 11 13 12 11 12 13 13 11 12 13 12 12 13 10 10 10 9 9 9 10 10 10 11 13 14 14 14 12 10 6 5 7 12
10 12 11 10 11 11 10 8 8 10 12 12 11 12 12 13 14 13 11 11 12 12 13 12 12 11 10 10 9 9 11 11 14 14 12 11 11 13 9 7 4 9 11
10 13 9 8 11 9 10 9 8 9 12 13 12 12 13 13 14 13 12 11 11 12 12 13 13 12 10 10 10 12 15 14 13 12 11 6 6 12 9 9 12 11 10
9 11 13 22 8 9 7 8 9 10 10 13 13 14 14 14 15 14 13 11 12 13 13 13 13 13 12 11 12 13 16 14 9 10 5 7 7 10 9 11 10 12 8
8 10 12 20 15 9 9 8 9 11 12 14 14 15 15 16 16 15 13 13 12 13 13 11 12 14 14 13 12 14 12 13 9 7 4 7 5 7 10 7 10 9 7
7 8 11 18 18 17 10 12 10 10 13 15 15 15 15 15 15 15 14 13 12 11 15 14 13 16 16 15 14 13 12 11 9 5 5 10 6 6 10 10 11 10 8
9 6 8 14 19 19 21 11 12 12 11 14 15 15 15 15 14 14 14 13 12 13 14 14 15 15 15 16 16 14 13 11 6 4 6 7 5 10 9 10 9 9 8
8 8 6 9 12 13 16 18 10 14 13 12 13 15 15 15 15 15 14 13 12 12 11 16 15 15 16 15 15 13 11 8 5 5 8 6 8 8 12 12 10 8 7
7 5 5 5 8 10 9 12 15 12 13 13 12 13 14 14 15 15 14 14 12 12 11 16 16 16 16 15 14 13 11 6 4 3 6 5 10 11 11 12 8 5 7
7 6 5 6 6 7 7 7 8 13 12 12 12 12 12 12 13 12 13 13 14 13 13 15 16 16 17 15 13 11 11 8 6 4 3 4 13 12 10 9 8 9 8
6 7 7 5 6 6 7 6 6 7 10 9 11 11 9 7 9 11 12 13 14 14 14 16 16 15 13 13 12 11 9 3 5 3 3 12 13 14 11 12 13 11 10
9 9 7 7 5 6 6 6 5 5 6 7 9 10 8 10 8 10 11 12 15 15 14 17 17 15 12 5 5 8 3 5 5 4 3 14 14 14 12 10 13 14 11
12 8 9 8 7 4 5 5 3 2 3 5 11 11 9 9 8 7 6 8 9 12 8 12 11 7 9 8 6 5 5 5 4 4 6 13 13 15 15 12 12 15 14
11 12 13 9 7 7 3 4 5 3 3 3 5 8 9 7 9 9 7 11 11 9 10 10 8 10 10 11 11 10 8 5 3 3 7 12 12 14 15 13 11 17 15
11 12 13 13 14 8 6 4 5 4 3 4 4 4 6 10 11 10 10 10 11 11 11 11 10 10 11 9 7 12 10 7 6 3 4 12 13 13 15 14 12 12 12
13 11 10 13 13 13 7 7 5 5 5 4 4 6 5 7 10 11 11 11 11 11 12 11 11 11 9 9 8 7 8 6 5 4 4 6 11 12 14 15 14 14 14
12 13 13 13 11 12 13 8 5 5 6 4 5 7 8 4 9 12 10 11 12 12 14 11 12 10 9 8 9 6 6 7 6 6 4 4 5 11 12 15 15 15 15
13 14 14 13 14 13 12 10 8 6 6 6 5 6 9 6 6 5 6 7 10 12 12 12 11 10 9 9 7 6 5 5 6 6 5 4 5 5 9 13 14 15 16
13 15 15 14 14 14 12 10 10 11 7 5 4 5 9 8 5 5 5 10 9 10 13 12 12 11 9 8 8 5 5 5 6 6 6 6 6 6 5 11 15 14 14
13 13 14 13 14 14 11 9 8 9 8 5 6 7 9 7 6 4 5 5 10 5 6 10 12 10 10 9 9 7 6 6 5 5 6 6 6 6 6 6 7 9 16
12 14 15 14 14 11 9 8 7 9 9 6 6 9 9 7 5 4 4 5 5 5 13 10 10 15 10 10 8 3 3 5 6 6 5 5 7 7 7 8 4 5 7
13 14 15 16 15 14 12 12 8 8 9 9 6 8 8 7 5 5 6 8 8 8 7 9 7 8 7 11 9 7 3 1 3 6 5 7 8 7 9 9 9 8 7
13 14 15 14 15 14 15 12 12 9 10 9 3 3 5 7 6 5 9 7 11 10 11 12 14 14 8 8 11 5 4 5 4 4 10 9 11 8 8 10 10 9 7
17 15 15 13 16 15 16 13 17 10 10 8 5 4 6 8 6 5 7 8 11 9 10 8 10 11 9 10 7 3 2 1 4 3 3 10 8 9 9 5 7 8 7
15 15 14 15 17 17 15 17 14 11 9 8 4 6 6 4 3 5 4 6 5 6 10 12 13 17 10 11 9 6 3 2 1 1 3 3 3 5 5 6 5 5 6
15 14 14 14 16 17 16 17 12 12 11 6 4 3 3 3 3 5 5 5 8 5 7 9 11 17 13 12 9 8 8 5 4 2 1 2 4 4 5 5 6 4 4
Wind_Direction
346 342 253 185 174 162 170 182 188 171 159 164 167 161 160 156 149 148 144 142 143 147 146 151 151 152 147 130 122 118 117 120 119 111 108 110 107 109 106 49 6 87 104
338 347 288 222 174 170 172 183 189 182 175 172 177 168 171 169 163 162 158 155 152 156 154 156 157 157 150 142 133 124 117 130 114 111 103 90 106 109 76 18 135 103 99
11 0 350 206 185 176 178 184 183 188 185 179 180 180 178 178 175 176 168 168 167 164 164 160 160 159 154 143 139 139 118 115 123 113 122 123 102 115 79 65 102 96 102
26 16 11 4 236 186 191 197 182 186 188 189 188 188 186 186 181 182 181 180 178 173 165 168 172 159 143 150 144 139 129 125 135 138 172 132 133 124 116 98 96 89 89
47 25 23 17 345 198 187 205 203 191 192 194 196 197 194 192 187 186 187 187 191 184 167 165 184 156 148 140 137 130 131 128 156 173 185 113 108 139 126 108 101 75 83
4 39 19 17 15 355 205 194 210 205 199 198 198 199 201 198 192 185 185 182 193 195 165 148 150 152 147 142 140 140 131 144 172 219 126 114 112 145 148 96 107 102 96
339 55 28 20 15 12 4 231 213 215 209 209 204 198 201 202 196 189 187 186 186 185 174 160 157 152 149 146 145 149 141 164 195 211 134 118 128 180 174 128 120 114 109
332 7 52 15 3 7 7 360 242 225 218 216 211 204 201 197 194 189 193 187 184 188 186 173 161 159 154 152 149 148 151 181 205 277 133 135 144 195 188 161 139 131 128
350 358 12 37 0 350 353 358 348 290 230 222 216 211 215 205 194 189 189 190 187 185 180 166 162 164 161 158 156 152 151 209 235 249 141 146 159 183 194 194 149 149 153
344 346 26 9 11 339 329 331 342 324 284 232 225 215 207 207 197 189 187 188 191 187 184 168 165 167 165 158 153 155 155 183 237 287 180 150 168 181 199 196 215 192 173
348 352 355 10 348 334 317 311 303 309 277 254 232 223 218 214 196 190 192 187 190 191 189 172 166 166 160 155 153 159 147 172 234 249 170 154 170 182 207 200 205 195 197
340 344 337 338 322 332 312 302 312 301 298 237 232 225 217 215 210 199 191 192 196 186 181 174 170 166 152 153 155 154 171 188 218 239 169 165 173 187 208 223 204 203 205
333 323 315 307 306 305 314 291 274 285 299 303 226 227 218 216 212 205 193 190 189 181 182 173 171 173 171 164 156 165 197 213 201 219 156 166 174 192 205 222 231 212 212
331 331 335 326 319 303 274 294 285 267 270 274 310 241 217 217 211 207 195 191 187 182 183 178 176 176 183 178 169 175 190 215 211 211 162 166 175 194 208 228 235 211 215
324 328 321 325 321 304 285 275 293 275 260 255 259 295 244 223 216 207 200 190 194 182 182 179 177 182 182 182 182 183 184 203 218 195 161 176 174 190 211 223 223 218 211
325 319 311 311 307 302 286 258 245 267 262 259 255 248 253 253 234 219 204 201 191 192 189 184 183 178 184 181 189 175 177 186 198 211 160 179 182 191 206 218 226 230 228
317 311 309 303 302 309 307 294 261 248 259 235 249 255 259 249 248 271 209 199 194 190 190 191 186 177 180 182 188 175 172 177 194 210 202 170 189 198 204 216 220 229 238
308 308 307 304 300 292 292 291 282 259 245 240 229 249 257 255 213 253 247 230 210 192 191 189 187 181 182 183 183 174 171 174 188 201 208 196 173 194 210 215 221 227 234
324 314 306 302 296 289 282 278 277 276 251 233 223 243 252 255 219 237 220 223 221 224 187 192 188 180 180 179 179 166 171 182 190 199 198 203 204 187 187 212 217 221 230
313 304 300 304 303 297 290 281 277 273 263 226 219 232 243 249 230 208 225 195 211 196 221 187 195 183 184 176 179 182 185 183 176 197 201 207 204 203 200 196 205 221 220
319 317 305 299 300 310 298 278 272 265 254 237 207 223 237 236 245 201 199 187 182 204 222 205 208 183 181 171 168 169 185 178 187 192 191 200 206 209 200 213 197 205 214
319 319 318 310 313 306 301 297 271 266 274 238 215 206 221 226 221 242 208 196 180 199 191 184 214 202 182 176 176 156 152 290 253 211 195 207 211 205 214 210 211 203 202
318 315 308 307 305 293 285 284 282 270 267 267 254 194 221 221 208 241 246 203 190 184 203 215 210 194 172 194 168 149 148 197 183 195 215 210 216 213 216 213 213 210 202
317 311 311 310 303 293 287 278 271 254 264 248 229 212 228 227 212 231 281 235 196 186 188 183 201 190 175 172 164 181 35 133 182 157 206 219 209 209 215 214 209 210 205
319 317 307 311 304 297 292 278 260 244 250 260 220 214 202 230 225 268 282 260 202 170 176 176 194 195 170 180 176 178 141 287 66 28 165 203 214 212 194 201 204 201 201
322 317 317 313 313 307 306 312 227 246 257 235 253 253 210 216 220 252 283 291 218 185 170 162 188 184 167 174 178 186 175 180 208 169 191 206 200 216 198 191 206 199 205